[[{"header":{"parameterUnit":"m.s-1","parameterCategory":1,"la1":30.2991,"la2":30.254,"lo1":-89.0895,"lo2":-89.0444,"dy":0.0017,"dx":0.0017,"nx":28,"ny":28,"refTime":"2023-11-03T21:00:00:Z","depth":0,"parameterNumber":2,"parameterNumberName":"U-component_of_WINDS"},"data":[0,0,0,0,0,0,0,0,0,0,0,0,0,0,0,0,0,0,0,0,0,0,0,0,0,0,0,0,0,0,0,0,0,0,0,0,0,0,0,0,0,0,0,0,0,0,0,0,0,0,0,0,0,0,0,0,0,0,-3.3436,-3.3437,0,-3.3544,-3.3545,-3.3546,-3.3431,-3.3426,-3.3422,-3.3418,-3.3532,-3.3539,-3.3546,0,0,0,0,0,0,0,0,0,0,0,0,0,-3.3134,-3.3141,-3.3436,-3.3437,-3.3439,-3.3544,-3.3545,-3.3547,-3.3432,-3.3426,-3.3421,-3.3416,-3.3529,-3.3538,-3.3547,0,0,0,0,0,0,0,0,0,0,0,0,0,-3.3256,-3.3143,-3.3436,-3.3394,-3.3391,-3.3543,-3.3545,-3.3547,-3.3433,-3.3426,-3.3419,-3.3413,-3.3527,-3.3537,-3.3548,-3.3747,0,0,-3.3581,-3.3585,0,0,0,0,0,0,0,0,-3.325,-3.3268,-3.3399,-3.3397,-3.3394,-3.3467,-3.348,-3.3614,-3.3434,-3.3417,-3.3418,-3.341,-3.3516,-3.3527,-3.3562,-3.3753,-3.3758,-3.3582,-3.3588,-3.3593,-3.3596,0,0,0,0,0,0,0,-3.3241,-3.3262,-3.3479,-3.3401,-3.3398,-3.3371,-3.3381,-3.3505,-3.3503,-3.3418,-3.341,-3.3424,-3.3513,-3.3552,-3.3564,-3.3759,-3.3581,-3.3591,-3.3597,-3.3602,-3.4122,-3.4129,0,0,0,0,0,0,-3.3237,-3.3256,-3.3475,-3.3482,-3.3304,-3.3382,-3.3393,-3.345,-3.3501,-3.3502,-3.343,-3.3418,-3.3537,-3.3551,-3.3567,-3.3806,-3.3593,-3.3603,-3.3609,-3.4114,-3.4123,-3.4131,0,0,0,0,0,0,-3.3231,-3.3258,-3.3471,-3.3367,-3.3392,-3.3394,-3.346,-3.3456,-3.3494,-3.351,-3.3509,-3.3469,-3.3532,-3.3552,-3.3704,-3.3808,-3.3608,-3.3617,-3.4106,-3.4117,-3.4127,-3.4285,0,0,0,0,0,0,-3.3223,-3.3256,-3.3331,-3.3369,-3.3398,-3.3605,-3.3466,-3.3463,-3.3513,-3.3499,-3.3547,-3.3548,-3.3528,-3.3688,-3.3715,-3.382,-3.3626,-3.4096,-3.4111,-3.4124,-3.427,-3.43,-3.4325,0,0,0,0,0,-3.3212,-3.3371,-3.3335,-3.3362,-3.3491,-3.3611,-3.3627,-3.36,-3.3522,-3.3598,-3.3608,-3.3547,-3.3793,-3.3705,-3.3733,-3.3843,-3.409,-3.4107,-3.4123,-3.4258,-3.4294,-3.4324,0,0,0,0,0,0,-3.3346,-3.3375,-3.3336,-3.3512,-3.356,-3.3591,-3.3686,-3.3639,-3.3711,-3.3695,-3.366,-3.3672,-3.3833,-3.3853,-3.3755,-3.404,-3.3929,-3.3952,-3.4021,-3.4056,-3.4083,-3.4075,-3.3635,0,0,0,0,0,-3.3396,-3.3489,-3.351,-3.3663,-3.3689,-3.3684,-3.3735,-3.371,-3.3759,-3.3779,-3.38,-3.385,-3.3939,-3.3998,-3.408,-3.4272,-3.4282,-3.4362,-3.4389,-3.4412,-3.4433,-3.4538,-3.4574,-3.4186,-3.4186,-3.4185,0,0,-3.35,-3.3528,-3.3589,-3.3691,-3.3725,-3.3824,-3.3702,-3.3811,-3.3885,-3.3796,-3.394,-3.3958,-3.4012,-3.4185,-3.4262,-3.4207,-3.4542,-3.4433,-3.4451,-3.4459,-3.4559,-3.4595,-3.4628,-3.4197,-3.4195,-3.4193,0,0,-3.374,-3.377,-3.3902,-3.3938,-3.3991,-3.3987,-3.4019,-3.4058,-3.4066,-3.421,-3.4146,-3.4234,-3.4387,-3.4429,-3.447,-3.4728,-3.4676,-3.4756,-3.49,-3.5003,-3.5033,-3.506,-3.5155,-3.5189,-3.4777,-3.4777,-3.4777,0,-3.3864,-3.4009,-3.3975,-3.409,-3.4138,-3.4061,-3.4195,-3.4233,-3.4311,-3.4346,-3.4283,-3.4474,-3.4505,-3.4688,-3.4751,-3.4787,-3.4824,-3.4751,-3.5031,-3.5058,-3.5083,-3.5172,-3.5208,-3.4787,-3.4785,-3.4784,-3.4784,0,-3.4159,-3.4261,-3.4361,-3.4438,-3.4497,-3.4621,-3.4608,-3.4672,-3.4642,-3.4645,-3.4794,-3.4829,-3.4918,-3.4959,-3.4931,-3.5139,-3.5103,-3.5036,-3.4923,-3.513,-3.5214,-3.5247,-3.48,-3.4797,-3.4794,-3.4792,0,0,-3.4486,-3.4544,-3.4581,-3.4616,-3.4669,-3.4748,-3.487,-3.4956,-3.5012,-3.5069,-3.5171,-3.5303,-3.5242,-3.529,-3.5266,-3.5356,-3.5561,-3.5278,-3.5279,-3.5331,-3.5795,-3.5846,-3.5886,-3.5526,-3.5532,-3.5537,-3.5791,0,-3.4729,-3.4939,-3.4913,-3.5114,-3.5209,-3.5138,-3.5244,-3.529,-3.5296,-3.5379,-3.5386,-3.5481,-3.5392,-3.542,-3.5506,-3.5518,-3.5654,-3.5499,-3.5623,-3.5628,-3.5613,-3.5929,-3.5983,-3.622,-3.5823,-3.5828,-3.5832,0,-3.504,-3.5108,-3.5319,-3.5359,-3.5398,-3.5494,-3.5572,-3.5651,-3.5702,-3.5701,-3.5754,-3.5715,-3.5839,-3.5723,-3.5895,-3.579,-3.5839,-3.5853,-3.5861,-3.5873,-3.5744,-3.5951,-3.6295,-3.6332,-3.5883,-3.5879,-3.5875,0,-3.5261,-3.5404,-3.5549,-3.5581,-3.5631,-3.5701,-3.5725,-3.5769,-3.5823,-3.5892,-3.5927,-3.601,-3.6055,-3.6121,-3.6106,-3.6023,-3.6282,-3.6164,-3.6286,-3.6287,-3.6345,-3.6342,-3.6704,-3.6375,-3.6374,-3.6374,-3.6373,0,-3.5535,-3.5668,-3.5649,-3.5739,-3.5885,-3.5855,-3.6002,-3.6017,-3.6058,-3.615,-3.6094,-3.6182,-3.6156,-3.6244,-3.6234,-3.6379,-3.6399,-3.6403,-3.6399,-3.6409,-3.6409,-3.6442,-3.6425,-3.6383,-3.6381,-3.6379,-3.6377,0,-3.5806,-3.5799,-3.5953,-3.5988,-3.6,-3.6107,-3.6138,-3.6223,-3.6225,-3.6343,-3.6369,-3.6373,-3.6474,-3.6465,-3.6579,-3.6572,-3.6752,-3.6727,-3.6735,-3.673,-3.6853,-3.6842,-3.7249,-3.7302,-3.6938,-3.6941,-3.6944,0,-3.5983,-3.6083,-3.6129,-3.6186,-3.6216,-3.6309,-3.6364,-3.6339,-3.6399,-3.6465,-3.6543,-3.6638,-3.6713,-3.6878,-3.6892,-3.6979,-3.6958,-3.7095,-3.697,-3.6978,-3.6962,-3.6957,-3.6968,-3.7119,-3.7123,-3.7127,-3.713,0,-3.6297,-3.6289,-3.6369,-3.645,-3.6517,-3.658,-3.6636,-3.6687,-3.6668,-3.6739,-3.684,-3.6899,-3.7015,-3.7111,-3.7194,-3.7221,-3.7174,-3.7168,-3.7202,-3.7214,-3.7214,-3.7217,-3.6803,-3.7159,-3.7156,-3.7154,-3.7153,-3.7151,-3.6527,-3.6613,-3.666,-3.6752,-3.6792,-3.6847,-3.6929,-3.6942,-3.7026,-3.7118,-3.7098,-3.7214,-3.7264,-3.7371,-3.7406,-3.7497,-3.7448,-3.7495,-3.7508,-3.752,-3.7535,-3.7199,-3.7512,-3.7511,-3.751,-3.751,-3.7509,0,-3.684,-3.6866,-3.6952,-3.7033,-3.7107,-3.7054,-3.7114,-3.718,-3.7282,-3.7332,-3.7407,-3.7526,-3.762,-3.7642,-3.7732,-3.7801,-3.7782,-3.7826,-3.7821,-3.7828,-3.7573,-3.7536,-3.784,-3.784,-3.784,-3.784,-3.784,-3.784,-3.7011,-3.7155,-3.7153,-3.7317,-3.7343,-3.7455,-3.7494,-3.7545,-3.7585,-3.772,-3.7797,-3.781,-3.785,-3.7943,-3.8028,-3.8032,-3.8068,-3.8122,-3.8118,-3.7879,-3.7846,-3.7814,-3.778,-3.8129,-3.813,-3.8365,-3.8367,-3.8369]},{"header":{"parameterUnit":"m.s-1","parameterCategory":1,"la1":30.2991,"la2":30.254,"lo1":-89.0895,"lo2":-89.0444,"dy":0.0017,"dx":0.0017,"nx":28,"ny":28,"refTime":"2023-11-03T21:00:00:Z","depth":0,"parameterNumber":3,"parameterNumberName":"V-component_of_WINDS"},"data":[0,0,0,0,0,0,0,0,0,0,0,0,0,0,0,0,0,0,0,0,0,0,0,0,0,0,0,0,0,0,0,0,0,0,0,0,0,0,0,0,0,0,0,0,0,0,0,0,0,0,0,0,0,0,0,0,0,0,-1.9681,-1.9681,0,-1.9649,-1.9648,-1.9648,-1.9632,-1.9632,-1.9632,-1.9632,-1.9598,-1.9597,-1.9596,0,0,0,0,0,0,0,0,0,0,0,0,0,-1.9728,-1.9727,-1.9681,-1.9681,-1.968,-1.9649,-1.9648,-1.9648,-1.9632,-1.9632,-1.9632,-1.9632,-1.9598,-1.9597,-1.9596,0,0,0,0,0,0,0,0,0,0,0,0,0,-1.9702,-1.9727,-1.9681,-1.9669,-1.9667,-1.9649,-1.9648,-1.9648,-1.9632,-1.9632,-1.9632,-1.9632,-1.9599,-1.9597,-1.9596,-1.9588,0,0,-1.9592,-1.9591,0,0,0,0,0,0,0,0,-1.9704,-1.9701,-1.9671,-1.967,-1.9668,-1.9644,-1.9652,-1.9627,-1.9632,-1.9645,-1.9632,-1.9632,-1.9613,-1.9611,-1.9605,-1.9586,-1.9584,-1.9592,-1.9591,-1.959,-1.959,0,0,0,0,0,0,0,-1.9706,-1.9702,-1.9668,-1.9671,-1.9669,-1.9664,-1.966,-1.9647,-1.963,-1.9644,-1.9643,-1.9639,-1.9613,-1.9606,-1.9604,-1.9584,-1.9592,-1.9591,-1.959,-1.9589,-1.9554,-1.9553,0,0,0,0,0,0,-1.971,-1.9704,-1.9669,-1.9667,-1.9686,-1.9663,-1.9659,-1.9652,-1.963,-1.9626,-1.9639,-1.9639,-1.9608,-1.9605,-1.9603,-1.9589,-1.959,-1.9589,-1.9588,-1.9554,-1.9554,-1.9553,0,0,0,0,0,0,-1.9711,-1.9707,-1.9671,-1.9685,-1.968,-1.9662,-1.9654,-1.9651,-1.9645,-1.9626,-1.9623,-1.9636,-1.9608,-1.9604,-1.9591,-1.9588,-1.9588,-1.9587,-1.9554,-1.9554,-1.9553,-1.9564,0,0,0,0,0,0,-1.9712,-1.9707,-1.9705,-1.9685,-1.9679,-1.966,-1.9654,-1.9651,-1.9642,-1.9641,-1.9622,-1.9619,-1.9608,-1.9593,-1.9589,-1.9586,-1.9586,-1.9554,-1.9554,-1.9554,-1.9564,-1.9564,-1.9564,0,0,0,0,0,-1.9714,-1.9709,-1.9705,-1.97,-1.9676,-1.966,-1.9657,-1.9644,-1.9642,-1.9639,-1.9626,-1.962,-1.9589,-1.9592,-1.9588,-1.9584,-1.9554,-1.9554,-1.9554,-1.9563,-1.9564,-1.9564,0,0,0,0,0,0,-1.9729,-1.9707,-1.9701,-1.969,-1.9677,-1.9657,-1.9653,-1.9646,-1.9633,-1.9632,-1.9617,-1.9613,-1.96,-1.9591,-1.9594,-1.9573,-1.9571,-1.957,-1.9579,-1.958,-1.958,-1.9582,-1.9585,0,0,0,0,0,-1.9731,-1.9721,-1.9701,-1.9694,-1.9687,-1.9671,-1.9664,-1.9655,-1.9641,-1.9635,-1.9622,-1.9608,-1.9595,-1.9587,-1.9574,-1.9562,-1.9556,-1.9557,-1.9558,-1.9558,-1.9557,-1.9547,-1.9547,-1.9552,-1.9552,-1.9552,0,0,-1.9735,-1.9722,-1.9716,-1.9696,-1.9685,-1.9674,-1.9667,-1.9656,-1.9647,-1.9634,-1.9619,-1.9609,-1.9592,-1.9579,-1.9572,-1.9571,-1.9554,-1.9557,-1.9558,-1.9557,-1.9547,-1.9546,-1.9546,-1.9552,-1.9552,-1.9552,0,0,-1.9737,-1.9726,-1.9717,-1.9706,-1.9689,-1.9678,-1.9676,-1.9657,-1.9649,-1.9635,-1.9624,-1.9613,-1.9591,-1.9579,-1.957,-1.9564,-1.9557,-1.9561,-1.9562,-1.9553,-1.9552,-1.9552,-1.9548,-1.9547,-1.956,-1.956,-1.956,0,-1.9744,-1.9727,-1.9714,-1.9703,-1.9693,-1.9681,-1.9671,-1.966,-1.964,-1.9633,-1.9632,-1.9603,-1.9591,-1.9573,-1.9571,-1.9565,-1.9561,-1.9563,-1.9554,-1.9553,-1.9552,-1.9548,-1.9547,-1.956,-1.956,-1.956,-1.956,0,-1.9736,-1.9724,-1.9719,-1.9699,-1.9689,-1.9679,-1.9663,-1.9654,-1.9646,-1.9634,-1.9618,-1.9603,-1.9586,-1.9581,-1.9574,-1.9562,-1.9561,-1.9557,-1.9554,-1.9552,-1.9548,-1.9547,-1.9561,-1.9561,-1.9561,-1.9561,0,0,-1.9747,-1.9719,-1.9717,-1.9707,-1.9686,-1.9676,-1.9664,-1.9647,-1.9639,-1.9625,-1.9613,-1.9594,-1.9589,-1.9579,-1.9569,-1.9562,-1.9555,-1.9558,-1.9557,-1.9557,-1.9539,-1.9541,-1.954,-1.955,-1.955,-1.955,-1.954,0,-1.9745,-1.9723,-1.971,-1.9693,-1.9681,-1.9668,-1.9657,-1.9642,-1.9631,-1.9618,-1.9605,-1.9591,-1.9587,-1.958,-1.9572,-1.9558,-1.9551,-1.9559,-1.9538,-1.9538,-1.9542,-1.9538,-1.9541,-1.9533,-1.9538,-1.9538,-1.9538,0,-1.974,-1.9725,-1.9707,-1.9686,-1.968,-1.9671,-1.9652,-1.9641,-1.9623,-1.9615,-1.9603,-1.9592,-1.9578,-1.9576,-1.9555,-1.956,-1.955,-1.9542,-1.9541,-1.9538,-1.9537,-1.9534,-1.953,-1.9528,-1.9536,-1.9536,-1.9536,0,-1.9748,-1.9724,-1.9709,-1.9701,-1.9676,-1.9669,-1.9658,-1.9641,-1.9631,-1.9614,-1.9607,-1.959,-1.958,-1.9566,-1.9551,-1.9551,-1.953,-1.9528,-1.9521,-1.9522,-1.9517,-1.9518,-1.951,-1.9513,-1.9513,-1.9513,-1.9513,0,-1.9746,-1.9735,-1.9712,-1.9703,-1.969,-1.9674,-1.9661,-1.9649,-1.9633,-1.962,-1.9608,-1.9596,-1.9577,-1.9562,-1.955,-1.9533,-1.9529,-1.9521,-1.9518,-1.9521,-1.9522,-1.9515,-1.9514,-1.9513,-1.9513,-1.9513,-1.9513,0,-1.9753,-1.9737,-1.972,-1.9697,-1.9691,-1.9682,-1.9662,-1.9652,-1.9639,-1.9623,-1.9618,-1.9598,-1.958,-1.9563,-1.954,-1.9531,-1.9513,-1.951,-1.9519,-1.9517,-1.9511,-1.9511,-1.9498,-1.9494,-1.9501,-1.9501,-1.9501,0,-1.9753,-1.9744,-1.9719,-1.971,-1.9699,-1.9685,-1.9673,-1.9657,-1.9646,-1.9623,-1.9615,-1.9596,-1.958,-1.9552,-1.9534,-1.9515,-1.951,-1.9507,-1.9507,-1.9511,-1.9508,-1.9508,-1.9506,-1.9507,-1.9507,-1.9507,-1.9507,0,-1.9753,-1.9745,-1.973,-1.9711,-1.9699,-1.9683,-1.9667,-1.966,-1.964,-1.9628,-1.9609,-1.9596,-1.9571,-1.9551,-1.953,-1.9518,-1.9508,-1.9507,-1.9504,-1.9507,-1.9512,-1.9508,-1.9518,-1.9507,-1.9507,-1.9507,-1.9507,-1.9507,-1.9755,-1.9746,-1.9726,-1.9709,-1.9695,-1.968,-1.9669,-1.9654,-1.9638,-1.9617,-1.9607,-1.9588,-1.9568,-1.9538,-1.9525,-1.9509,-1.9507,-1.9503,-1.9502,-1.9501,-1.9501,-1.9516,-1.9505,-1.9505,-1.9505,-1.9505,-1.9505,0,-1.9753,-1.974,-1.9724,-1.9702,-1.9688,-1.9681,-1.9662,-1.965,-1.9633,-1.9616,-1.9599,-1.9576,-1.9557,-1.9537,-1.9516,-1.9506,-1.9501,-1.9501,-1.9501,-1.9498,-1.9505,-1.9509,-1.9505,-1.9505,-1.9505,-1.9505,-1.9505,-1.9505,-1.9751,-1.9734,-1.9723,-1.9699,-1.9685,-1.9666,-1.9655,-1.964,-1.9626,-1.9601,-1.9584,-1.9572,-1.9552,-1.9529,-1.951,-1.9505,-1.9497,-1.9498,-1.9491,-1.9498,-1.9498,-1.9498,-1.9501,-1.9496,-1.9496,-1.9485,-1.9485,-1.9485]}]]